Flag for Lebanon Weather past 2 weeks in Beirut, Lebanon

Now
77 °F

Passing clouds.


Feels Like: 79 °F
Forecast: 74 / 83 °F
Wind: 5 mph from East

Location: Beirut Airport

Current Time: Sep 21, 2014 at 1:40:14 AM

Latest Report: Sep 21, 2014 at 1:00 AM


Visibility: N/A

Pressure: 29.92 "Hg

Humidity: 61%

Dew point: 63 °F

Location of BeirutLocation

Historic Weather in Beirut — Graph

°F

Beirut temperature yesterday

Maximum temperature yesterday: 84 °F (at 12:00 PM)
Minimum temperature yesterday: 75 °F (at 5:00 AM)
Average temperature yesterday: 80 °F

Past Weeks' High & Low Weather Summary

 TemperatureHumidityPressure
High88 °F (Sep 6, 2:00 PM)70% (Sep 10, 1:00 AM)30.01 "Hg (Sep 10, 1:00 AM)
Low75 °F (Sep 20, 5:00 AM)42% (Sep 9, 8:00 AM)29.74 "Hg (Sep 6, 2:00 AM)
Average82 °F59%29.90 "Hg
* Reported Midnight between Sep 5 and Sep 6 — Midnight between Sep 20 and Sep 21, Beirut, Weather by CustomWeather, © 2014

Note: Actual official high and low records may vary slightly from our data, if they occured in-between our weather recording intervals... More about our weather records

Advertising

Beirut weather history for previous 24 hours

 ConditionsComfort  
Time TempWeatherWind HumidityBarometerVisibility
12:00 AM
Sep 21
77 °FPassing clouds.5 mph61%29.92 "HgN/A
11:00 PM
Sep 20
79 °FPassing clouds.6 mph58%29.92 "HgN/A
10:00 PM79 °FPassing clouds.3 mph58%29.95 "HgN/A
9:00 PM81 °FPassing clouds.6 mph58%29.92 "HgN/A
8:00 PM81 °FPassing clouds.8 mph58%29.92 "HgN/A
4:00 PM84 °FScattered clouds.12 mph48%29.92 "HgN/A
3:00 PM84 °FScattered clouds.10 mph51%29.92 "HgN/A
2:00 PM84 °FPartly sunny.10 mph51%29.95 "HgN/A
1:00 PM82 °FPartly sunny.10 mph62%29.95 "HgN/A
12:00 PM84 °FPartly sunny.8 mph58%29.95 "HgN/A
11:00 AM82 °FPartly sunny.8 mph58%29.95 "HgN/A
10:00 AM82 °FScattered clouds.7 mph51%29.95 "HgN/A
9:00 AM82 °FScattered clouds.3 mph48%29.95 "HgN/A
8:00 AM77 °FPassing clouds.5 mph57%29.95 "Hg5 mi
7:00 AM75 °FPassing clouds.6 mph61%29.95 "Hg5 mi
6:00 AM75 °FPassing clouds.6 mph65%29.95 "Hg5 mi
5:00 AM75 °FPassing clouds.6 mph65%29.95 "Hg5 mi
4:00 AM77 °FPassing clouds.6 mph61%29.95 "Hg5 mi
3:00 AM77 °FPassing clouds.6 mph61%29.95 "Hg5 mi
2:00 AM79 °FPassing clouds.5 mph58%29.95 "Hg5 mi
1:00 AM79 °FPassing clouds.5 mph58%29.95 "Hg5 mi
Weather by CustomWeather, © 2014

See weather overviewHow to use our weather pages